Theta_e
317 317 317 317 317 317 317 317 317 318 318 319 319 319 319 320 320 321 312 316 320 331 323 319 318 317 317 315 316 316 312 311 311 310 311 317 316 325 331 328 331 334 331 338 343
316 316 316 316 316 316 316 316 317 317 318 318 319 319 319 320 319 314 323 329 330 333 316 313 312 314 313 313 314 312 311 313 317 316 313 314 315 318 324 327 328 330 336 341 342
315 315 315 315 316 316 316 316 316 317 317 318 318 318 319 322 314 311 337 337 332 330 316 315 314 313 310 312 312 312 309 315 316 316 315 314 315 320 320 320 327 329 335 338 338
315 315 315 315 315 315 315 315 316 317 317 317 317 318 319 321 302 316 341 342 335 320 315 312 311 309 308 307 311 307 312 313 316 316 314 313 317 317 319 322 332 333 338 338 336
314 314 314 314 314 315 315 315 315 316 316 316 316 317 320 311 309 317 342 339 321 316 314 312 310 310 307 308 309 308 311 313 315 315 315 315 314 316 318 325 331 334 338 338 338
313 313 313 313 314 315 315 315 315 315 315 316 316 317 315 304 315 325 325 321 318 315 314 314 311 312 309 309 308 311 311 312 314 315 316 312 314 317 318 324 328 332 334 338 339
314 312 312 313 314 314 315 314 314 316 318 317 317 320 311 308 318 321 319 317 316 315 312 314 314 310 313 309 313 311 308 310 313 314 313 315 312 315 320 325 325 328 333 336 339
313 313 312 313 314 314 314 314 315 320 318 318 319 320 307 315 318 318 319 316 317 316 316 316 316 313 313 315 311 308 308 305 312 312 315 317 309 315 318 320 320 324 329 333 336
313 312 312 313 313 313 313 313 319 320 319 321 320 314 307 313 312 317 317 313 316 316 316 314 315 312 311 308 306 307 302 304 307 312 314 315 310 315 318 317 319 321 323 329 334
312 311 311 312 313 312 311 313 319 322 323 324 320 311 314 309 315 317 319 315 314 314 311 311 310 307 308 306 299 302 302 304 305 311 311 310 310 314 317 317 318 319 320 324 330
310 311 311 311 311 310 314 317 313 312 311 308 311 311 308 314 317 317 317 315 317 314 307 309 304 302 306 308 307 305 304 303 306 310 309 308 310 313 316 317 320 320 319 323 329
309 310 311 311 310 311 314 310 306 307 303 310 309 308 310 312 307 313 318 310 312 308 310 306 302 307 308 308 306 305 303 304 307 309 308 308 309 313 315 318 322 322 322 324 329
310 310 311 310 310 312 312 307 310 310 304 306 307 307 308 310 306 310 314 311 309 307 308 305 306 308 306 305 304 305 304 303 303 307 309 309 307 310 314 322 326 326 325 328 329
310 310 310 308 311 308 311 309 312 311 302 303 308 309 310 309 304 313 317 311 308 305 307 307 310 306 305 304 306 302 306 305 304 304 300 309 300 309 312 314 320 324 325 326 329
309 310 309 307 307 306 308 311 313 312 293 305 307 314 311 307 310 308 317 312 306 305 307 304 305 305 303 305 307 304 307 306 306 305 305 305 302 306 312 310 313 323 327 328 330
309 309 308 308 309 308 310 311 312 300 291 301 306 305 306 307 309 311 312 314 312 307 308 306 311 309 308 308 308 308 306 307 307 305 299 303 303 304 308 310 314 322 327 330 331
308 307 306 308 307 310 310 311 300 294 301 299 301 304 304 303 305 308 306 306 304 300 301 305 305 309 310 306 309 308 305 298 297 297 296 305 302 305 311 313 314 316 321 327 333
307 305 305 308 311 310 309 304 294 297 297 303 302 303 302 304 304 305 306 304 308 306 302 300 297 304 308 306 305 306 305 299 292 295 298 305 299 305 313 315 320 323 325 328 332
304 310 309 313 312 311 306 297 299 299 300 300 302 299 301 302 303 305 305 305 306 308 301 301 299 306 306 308 307 304 301 307 302 303 299 302 305 310 313 313 316 320 324 327 331
303 305 310 312 313 308 303 297 300 300 302 301 297 300 298 300 302 303 304 305 304 306 310 306 299 305 306 309 308 306 310 301 302 294 294 299 301 303 308 310 314 316 320 327 332
304 302 309 313 312 304 298 299 300 302 303 300 299 298 299 299 301 302 302 304 306 305 308 307 305 302 305 304 304 304 303 304 305 303 297 296 300 311 311 314 314 316 318 325 332
303 298 310 313 302 303 299 299 298 301 304 302 302 301 300 300 299 300 300 304 308 308 303 307 306 301 303 309 309 308 306 306 300 299 302 301 300 313 314 314 316 317 319 327 333
302 304 311 311 297 298 301 299 300 300 301 301 300 302 303 300 297 300 301 305 307 307 305 309 304 300 302 306 308 305 307 307 308 307 301 298 300 313 314 315 316 316 319 326 333
300 296 303 306 306 302 300 299 298 302 301 302 300 303 302 300 303 300 301 305 306 306 308 310 306 303 299 302 305 303 305 307 307 302 301 302 304 309 311 313 315 317 320 325 332
300 298 301 299 300 302 302 300 298 297 301 304 301 300 300 298 300 299 302 303 305 306 307 307 301 304 304 303 304 303 303 304 304 306 303 305 306 310 314 316 317 319 322 326 329
298 298 300 302 300 300 298 299 298 299 300 299 299 301 302 299 300 299 301 301 301 304 303 305 299 302 300 303 303 301 303 304 304 304 305 306 307 314 317 319 318 318 319 322 328
303 304 301 296 298 297 299 299 299 301 302 302 301 301 300 301 304 306 306 307 305 302 301 301 300 299 295 301 301 297 302 304 305 307 306 303 309 314 314 316 318 320 321 321 325
Wind_Speed
14 14 14 14 15 15 15 16 16 16 15 15 14 14 14 14 16 8 11 1 2 5 5 7 8 7 7 7 7 5 10 11 5 5 4 3 5 6 3 5 7 6 2 4 17
14 14 15 16 16 16 16 17 16 17 16 16 14 14 13 12 11 12 2 1 4 9 10 10 8 7 9 10 6 10 11 13 3 6 6 5 6 6 5 7 9 7 3 11 17
16 17 17 17 17 16 17 18 18 17 16 15 13 13 12 13 10 4 3 5 8 12 12 11 3 8 10 8 10 11 14 9 6 7 7 11 10 0 6 9 7 9 11 16 16
17 18 18 19 19 18 18 19 19 18 16 14 12 11 11 6 3 6 5 6 11 12 10 10 12 12 10 11 10 11 13 10 10 3 9 11 9 11 9 5 3 5 13 16 17
18 19 20 20 20 20 19 19 19 18 16 13 10 8 7 7 7 6 1 8 14 12 12 11 11 11 11 7 7 14 11 8 11 12 11 12 13 14 15 5 6 7 12 16 15
17 19 20 21 21 20 20 19 18 17 15 10 8 6 6 9 5 4 8 10 8 12 9 7 3 4 8 8 12 0 11 12 11 12 9 10 11 4 4 6 15 10 13 15 17
17 19 20 21 21 21 21 20 18 15 11 7 7 6 7 9 1 7 4 4 9 6 8 5 1 9 0 8 4 8 11 14 15 13 9 6 13 14 10 3 10 15 13 15 15
17 19 21 22 22 22 22 20 15 9 2 7 9 6 7 3 2 9 6 2 6 5 1 3 5 5 8 2 7 12 9 13 15 8 3 6 15 15 3 7 10 12 15 15 15
18 20 22 23 24 24 22 18 7 5 7 11 7 6 3 5 6 5 10 6 8 6 2 5 8 7 6 11 10 10 12 15 9 5 4 9 13 8 4 5 11 12 13 16 16
19 20 22 24 24 25 22 7 2 7 7 6 3 6 7 3 4 2 5 10 8 11 7 7 8 10 11 10 11 6 9 7 11 10 9 13 14 15 12 8 14 15 17 15 15
20 20 22 24 25 25 12 6 5 7 8 9 3 5 1 5 3 6 8 12 10 13 10 10 10 13 13 11 8 5 6 9 7 4 10 14 16 15 17 9 15 14 15 15 13
19 21 22 24 26 21 9 5 5 6 10 8 12 13 15 6 4 9 11 14 12 13 7 8 13 10 4 6 8 8 9 11 9 7 6 14 14 16 13 11 10 11 11 13 12
17 20 22 26 24 6 6 7 6 4 8 1 3 4 1 12 7 9 14 17 16 16 13 13 6 4 10 10 11 12 11 9 11 9 14 14 17 17 9 8 8 9 9 8 10
18 19 21 31 6 7 3 5 8 6 7 7 4 5 5 3 7 8 15 12 9 15 11 11 10 8 9 14 12 13 5 9 8 8 10 6 12 9 9 9 6 4 8 9 9
17 18 19 15 8 5 7 9 4 6 6 4 6 4 1 5 2 9 9 10 14 10 9 7 9 13 15 12 10 10 3 8 8 10 10 14 10 14 6 11 6 2 3 4 5
17 17 19 4 5 6 9 10 5 7 4 3 2 1 5 6 3 6 10 7 6 12 11 15 4 6 7 4 11 2 8 11 10 12 12 15 11 12 10 5 7 4 0 1 4
20 21 14 4 4 8 9 5 6 7 3 4 2 6 1 3 7 8 14 15 10 10 13 14 14 13 9 10 10 9 8 8 10 11 12 5 7 14 10 6 6 9 5 3 5
20 23 5 5 6 8 6 6 7 4 1 1 4 5 0 4 4 8 10 13 15 11 6 8 9 16 12 19 13 13 13 10 7 10 9 9 7 6 5 5 7 8 8 8 7
25 3 3 2 4 4 7 8 2 2 2 3 6 7 4 2 5 5 11 8 6 13 7 5 5 2 4 9 15 17 11 13 15 13 10 12 8 7 16 11 10 8 6 7 7
7 5 1 5 3 6 7 7 3 1 1 3 4 3 2 1 6 4 7 5 2 3 9 4 8 8 2 5 6 13 0 8 10 13 16 10 10 8 5 8 7 7 6 7 7
4 5 6 3 4 6 9 6 3 3 2 3 2 4 1 2 4 1 3 8 7 4 4 8 8 4 6 11 10 9 12 9 8 8 10 12 8 1 7 8 10 13 9 6 9
3 4 5 4 7 3 9 3 2 3 4 5 4 4 5 2 5 4 1 6 9 7 1 3 6 10 17 10 5 12 16 12 11 12 10 11 13 11 9 14 12 14 12 6 6
3 1 4 4 6 8 3 5 3 5 4 4 5 6 4 7 6 6 4 4 6 7 5 7 6 9 11 10 10 11 12 14 10 10 15 15 11 3 6 13 15 16 11 5 7
4 4 5 5 3 7 6 8 7 4 7 6 5 5 6 8 6 4 5 3 2 5 5 4 7 10 12 11 9 4 8 9 10 11 13 15 17 15 15 16 18 17 12 7 10
4 2 5 5 8 9 5 1 10 7 6 6 5 11 10 9 10 12 11 9 6 4 3 5 8 12 12 14 15 14 14 15 16 15 17 15 16 15 15 17 18 16 11 8 12
3 4 5 1 4 9 9 9 10 6 6 8 9 5 7 11 9 2 6 4 7 2 3 1 8 9 16 16 17 21 20 19 20 21 22 21 21 17 19 18 16 18 16 11 13
2 1 5 7 7 8 10 11 9 9 7 7 5 7 7 3 2 3 5 7 9 7 7 7 7 9 18 17 18 22 20 24 25 24 20 22 19 17 13 17 15 15 15 16 11
Wind_Direction
6 3 357 350 345 342 336 332 330 328 324 322 328 332 329 327 298 227 259 320 44 138 229 160 189 193 211 233 240 262 254 251 220 253 90 126 302 95 30 205 224 192 314 74 133
2 360 354 349 344 337 330 328 326 322 320 319 327 327 324 325 287 268 96 93 258 178 205 200 184 190 212 231 213 236 241 249 351 297 277 317 308 337 223 195 215 206 165 138 153
359 356 352 345 338 332 329 325 321 316 313 315 321 320 319 306 276 106 77 243 204 196 229 238 241 228 235 232 208 222 254 264 241 252 296 300 294 148 268 242 203 208 164 159 163
354 351 346 340 335 330 325 320 315 312 308 309 314 315 316 266 309 91 347 233 189 195 204 199 214 215 233 222 214 250 239 264 270 283 269 275 315 282 265 315 96 220 158 169 173
351 347 342 336 332 327 322 317 312 306 301 301 302 309 272 235 262 58 312 138 169 185 191 190 202 222 235 233 214 240 250 254 255 267 263 287 274 283 285 177 179 161 168 178 185
348 344 339 332 329 325 320 316 309 301 295 284 273 273 250 255 63 68 109 149 186 191 183 209 255 234 282 239 229 58 259 251 258 264 272 270 277 301 241 236 197 188 187 189 194
342 339 335 330 327 324 323 319 314 308 292 244 221 234 250 271 65 135 166 65 172 192 183 188 254 217 223 215 231 238 254 228 235 242 258 271 255 241 246 150 205 203 206 201 203
341 336 332 330 328 327 328 321 317 327 87 167 190 222 263 104 231 228 208 171 185 188 310 155 220 264 250 26 212 235 236 242 215 198 162 237 254 211 184 234 238 224 209 209 211
341 336 333 332 331 329 328 322 324 86 125 149 196 254 267 130 218 205 209 217 161 177 154 179 201 232 194 232 225 204 249 217 192 205 176 231 267 292 157 243 266 264 233 217 211
341 337 334 333 330 328 323 282 91 160 180 224 259 244 214 111 124 164 172 172 165 157 161 189 201 216 223 228 244 254 217 234 265 157 229 253 257 272 267 268 264 265 259 231 215
340 336 334 332 329 325 317 211 238 173 218 276 352 306 183 344 232 190 169 181 166 191 207 201 221 217 218 227 315 289 274 271 278 266 270 261 265 272 268 259 260 266 246 238 213
339 338 337 332 327 317 280 51 56 328 300 265 255 264 269 280 272 205 182 190 194 210 182 191 229 241 274 225 236 244 260 260 277 291 251 266 272 269 255 270 284 283 238 221 208
336 337 338 331 322 309 17 66 342 228 262 231 220 259 306 200 222 206 202 209 203 214 207 248 73 240 212 204 231 238 262 280 287 298 269 264 260 248 218 254 256 253 249 224 218
337 339 341 329 294 350 96 349 325 222 271 126 168 131 156 193 209 221 210 206 216 219 216 245 224 205 221 241 236 263 260 261 271 262 259 207 274 182 210 253 204 223 210 217 214
334 336 340 335 319 305 4 335 339 232 275 70 101 72 139 239 54 173 199 226 229 208 207 214 211 219 232 234 222 264 296 257 276 262 276 247 246 273 199 257 265 158 176 186 205
330 330 337 199 256 301 317 314 235 231 221 115 90 210 213 188 147 132 187 233 297 231 228 273 169 238 241 241 236 255 216 235 251 251 238 242 246 253 246 3 322 149 83 189 210
322 319 310 301 348 332 310 236 226 252 106 76 357 334 343 159 167 172 188 199 206 206 220 222 237 222 239 226 186 222 230 243 216 216 245 186 232 251 309 282 287 297 268 240 213
318 312 160 269 302 303 262 221 246 70 324 60 306 293 347 342 154 199 181 201 221 236 283 231 219 218 219 232 239 207 239 264 271 258 251 147 238 221 239 286 286 285 278 281 208
309 270 238 132 288 246 235 217 282 349 20 315 259 261 154 166 291 228 218 240 211 214 246 211 233 141 253 240 233 230 237 258 273 265 276 279 247 214 245 258 259 253 271 260 221
314 289 130 334 199 222 229 251 222 173 288 277 295 332 270 47 244 250 179 14 10 332 279 252 261 224 181 202 212 256 117 210 219 263 254 251 245 269 251 285 330 302 274 250 222
257 257 62 136 236 212 228 237 243 180 259 268 281 252 242 332 308 271 59 80 358 343 257 255 244 185 187 210 243 180 226 232 298 297 280 270 265 109 280 310 309 312 331 304 195
285 230 120 285 216 202 227 208 355 187 204 230 275 265 265 257 272 276 216 30 357 317 269 58 262 249 248 267 257 272 281 236 240 234 237 277 277 304 281 292 313 305 320 322 188
260 333 159 284 229 213 165 214 245 214 226 210 220 240 227 247 258 240 221 107 14 21 26 359 222 247 216 217 212 235 221 236 250 282 264 274 267 196 251 272 291 295 306 284 208
258 209 157 221 316 279 205 228 210 211 235 247 263 238 214 232 218 252 225 158 31 27 316 280 269 268 287 351 352 229 220 223 225 250 261 254 269 269 288 273 278 282 305 256 201
231 153 12 189 209 223 224 177 221 195 221 211 200 237 227 235 237 238 248 246 198 120 266 307 259 265 274 283 287 272 271 268 253 254 265 281 285 294 296 286 284 290 293 256 213
264 233 168 154 252 226 194 213 232 207 222 195 247 205 222 236 245 307 254 236 263 329 303 243 265 266 266 264 267 269 260 254 256 257 260 264 267 277 279 281 282 271 269 253 233
140 200 286 117 195 226 211 230 224 219 180 275 254 204 223 237 326 351 312 302 289 284 285 279 278 249 263 266 269 265 250 249 254 253 256 260 268 279 295 304 294 282 271 278 244